Weather History for Grove, OK

Change the Weather History Date:

Thursday, May 15, 2014

  Actual Average (KSLG) Record (KSLG)
Temperature  
Mean Temperature 52 °F -  
Max Temperature 64 °F 73 °F 84 °F (1998)
Min Temperature 41 °F 54 °F 37 °F (2014)
Degree Days  
Heating Degree Days 12    
Growing Degree Days 2 (Base 50)    
Moisture  
Dew Point 41 °F    
Average Humidity 70    
Maximum Humidity 100    
Minimum Humidity 30    
Precipitation  
Precipitation 0.00 in - - ()
Sea Level Pressure  
Sea Level Pressure 30.16 in    
Wind  
Wind Speed 3 mph (NW)    
Max Wind Speed 14 mph    
Max Gust Speed 24 mph    
Visibility 10 miles    
Events Rain , Thunderstorm    
Averages and records for this station are not official NWS values.
T = Trace of Precipitation, MM = Missing Value Source: NWS Daily Summary

Daily Weather History Graph

Daily Weather History Graph

Search for Another Location

Airport:

Trip Planner

Search our weather history database for the weather conditions in past years. The results will help you decide how hot, cold, wet, or windy it might be!

Date:

Astronomy

May. 15, 2014 Rise Set
Actual Time 6:11 AM CDT 8:19 PM CDT
Civil Twilight 5:42 AM CDT 8:48 PM CDT
Nautical Twilight 5:07 AM CDT 9:23 PM CDT
Astronomical Twilight 4:29 AM CDT 10:01 PM CDT
Moon 9:28 PM CDT (5/15) 6:59 AM CDT (5/15)
Length of Visible Light 15h 05m
Length of Day
14h 07m
Full, 99% of the Moon is Illuminated
May 15
Full
May 21
Last Quarter
May 28
New
Jun 5
First Quarter
Jun 12
Full

Hourly Weather History & Observations

Time (CDT) Temp. Windchill Dew Point Humidity Pressure Visibility Wind Dir Wind Speed Gust Speed Precip Events Conditions
12:15 AM 46.4 °F - 46.4 °F 100% 30.19 in 10.0 mi Calm Calm - N/A   Clear
12:35 AM 44.6 °F - 44.6 °F 100% 30.19 in 10.0 mi Calm Calm - N/A   Clear
12:55 AM 44.6 °F - 44.6 °F 100% 30.19 in 10.0 mi Calm Calm - N/A   Clear
1:15 AM 42.8 °F - 42.8 °F 100% 30.17 in 10.0 mi Calm Calm - N/A   Clear
1:35 AM 42.8 °F - 42.8 °F 100% 30.17 in 10.0 mi Calm Calm - N/A   Clear
1:55 AM 42.8 °F - 42.8 °F 100% 30.16 in 10.0 mi Calm Calm - N/A   Clear
2:15 AM 42.8 °F - 42.8 °F 100% 30.15 in 10.0 mi Calm Calm - N/A   Clear
2:35 AM 42.8 °F - 42.8 °F 100% 30.15 in 10.0 mi Calm Calm - N/A   Scattered Clouds
2:55 AM 42.8 °F - 42.8 °F 100% 30.15 in 10.0 mi Calm Calm - N/A   Scattered Clouds
3:15 AM 42.8 °F - 42.8 °F 100% 30.14 in 10.0 mi Calm Calm - N/A   Scattered Clouds
3:35 AM 42.8 °F 41.1 °F 42.8 °F 100% 30.13 in 10.0 mi South 3.5 mph - N/A   Mostly Cloudy
3:55 AM 44.6 °F - 42.8 °F 93% 30.13 in 10.0 mi Calm Calm - N/A   Mostly Cloudy
4:15 AM 44.6 °F - 44.6 °F 100% 30.14 in 10.0 mi Calm Calm - N/A   Mostly Cloudy
4:35 AM 42.8 °F - 42.8 °F 100% 30.14 in 10.0 mi Calm Calm - N/A   Scattered Clouds
4:55 AM 42.8 °F 41.1 °F 42.8 °F 100% 30.14 in 10.0 mi SE 3.5 mph - N/A   Mostly Cloudy
5:15 AM 42.8 °F - 42.8 °F 100% 30.14 in 10.0 mi Calm Calm - N/A   Mostly Cloudy
5:35 AM 42.8 °F - 42.8 °F 100% 30.14 in 10.0 mi Calm Calm - N/A   Scattered Clouds
5:55 AM 42.8 °F - 42.8 °F 100% 30.14 in 10.0 mi Calm Calm - N/A   Clear
6:15 AM 41.0 °F - 41.0 °F 100% 30.14 in 10.0 mi Calm Calm - N/A   Scattered Clouds
6:35 AM 42.8 °F - 42.8 °F 100% 30.15 in 10.0 mi Calm Calm - N/A   Clear
6:55 AM 42.8 °F - 42.8 °F 100% 30.15 in 10.0 mi Calm Calm - N/A   Clear
7:15 AM 46.4 °F - 46.4 °F 100% 30.15 in 10.0 mi Calm Calm - N/A   Scattered Clouds
7:35 AM 48.2 °F - 48.2 °F 100% 30.16 in 10.0 mi Calm Calm - N/A   Scattered Clouds
7:55 AM 51.8 °F - 50.0 °F 94% 30.16 in 10.0 mi West 8.1 mph - N/A   Scattered Clouds
8:15 AM 53.6 °F - 46.4 °F 77% 30.16 in 10.0 mi WSW 5.8 mph - N/A   Clear
8:35 AM 53.6 °F - 44.6 °F 72% 30.16 in 10.0 mi West 5.8 mph - N/A   Clear
8:55 AM 55.4 °F - 44.6 °F 67% 30.17 in 10.0 mi West 5.8 mph - N/A   Clear
9:15 AM 55.4 °F - 44.6 °F 67% 30.17 in 10.0 mi West 4.6 mph - N/A   Clear
9:35 AM 55.4 °F - 44.6 °F 67% 30.17 in 10.0 mi NNW 4.6 mph - N/A   Clear
9:55 AM 57.2 °F - 44.6 °F 63% 30.18 in 10.0 mi NW 5.8 mph - N/A   Clear
10:15 AM 59.0 °F - 44.6 °F 59% 30.19 in 10.0 mi NNW 12.7 mph 16.1 mph N/A   Scattered Clouds
10:35 AM 59.0 °F - 44.6 °F 59% 30.18 in 10.0 mi Calm Calm - N/A Rain Light Rain
10:55 AM 59.0 °F - 46.4 °F 63% 30.18 in 10.0 mi NNW 6.9 mph - N/A   Scattered Clouds
11:15 AM 60.8 °F - 46.4 °F 59% 30.19 in 10.0 mi NW 6.9 mph - N/A   Clear
11:35 AM 62.6 °F - 46.4 °F 55% 30.19 in 10.0 mi NW 6.9 mph - N/A   Clear
11:55 AM 62.6 °F - 46.4 °F 55% 30.19 in 10.0 mi NNW 10.4 mph - N/A   Clear
12:35 PM 62.6 °F - 44.6 °F 52% 30.19 in 10.0 mi NW 9.2 mph 20.7 mph N/A   Clear
12:55 PM 62.6 °F - 44.6 °F 52% 30.19 in 10.0 mi NW 9.2 mph - N/A   Clear
1:15 PM 62.6 °F - 41.0 °F 45% 30.18 in 10.0 mi North 11.5 mph 16.1 mph N/A   Scattered Clouds
2:15 PM 64.4 °F - 39.2 °F 40% 30.18 in 10.0 mi NW 13.8 mph 20.7 mph N/A   Clear
2:55 PM 60.8 °F - 35.6 °F 39% 30.16 in 10.0 mi North 5.8 mph 17.3 mph N/A   Mostly Cloudy
3:15 PM 60.8 °F - 33.8 °F 36% 30.16 in 10.0 mi WNW 6.9 mph - N/A   Mostly Cloudy
3:35 PM 60.8 °F - 35.6 °F 39% 30.16 in 10.0 mi WNW 9.2 mph - N/A   Scattered Clouds
3:55 PM 62.6 °F - 37.4 °F 39% 30.16 in 10.0 mi West 10.4 mph 20.7 mph N/A   Scattered Clouds
4:15 PM 62.6 °F - 37.4 °F 39% 30.17 in 10.0 mi WNW 10.4 mph 18.4 mph N/A   Mostly Cloudy
4:35 PM 62.6 °F - 35.6 °F 37% 30.16 in 10.0 mi WNW 9.2 mph 17.3 mph N/A   Mostly Cloudy
4:55 PM 64.4 °F - 33.8 °F 32% 30.14 in 10.0 mi WNW 5.8 mph - N/A   Scattered Clouds
5:15 PM 64.4 °F - 33.8 °F 32% 30.13 in 10.0 mi NW 8.1 mph - N/A   Clear
5:35 PM 64.4 °F - 32.0 °F 30% 30.13 in 10.0 mi North 8.1 mph - N/A   Clear
5:55 PM 64.4 °F - 32.0 °F 30% 30.13 in 10.0 mi NW 12.7 mph - N/A   Clear
6:15 PM 64.4 °F - 32.0 °F 30% 30.14 in 10.0 mi WNW 13.8 mph 19.6 mph N/A Thunderstorm Clear
6:35 PM 62.6 °F - 30.2 °F 30% 30.14 in 10.0 mi NNW 11.5 mph - N/A   Clear
6:55 PM 62.6 °F - 30.2 °F 30% 30.14 in 10.0 mi NW 8.1 mph - N/A   Clear
7:15 PM 62.6 °F - 30.2 °F 30% 30.14 in 10.0 mi NW 9.2 mph 24.2 mph N/A   Clear
7:35 PM 60.8 °F - 32.0 °F 34% 30.14 in 10.0 mi NW 4.6 mph - N/A   Clear
7:55 PM 59.0 °F - 33.8 °F 39% 30.14 in 10.0 mi Calm Calm - N/A   Clear
8:15 PM 59.0 °F - 32.0 °F 36% 30.15 in 10.0 mi Calm Calm - N/A   Clear
8:55 PM 51.8 °F - 39.2 °F 62% 30.15 in 10.0 mi Calm Calm - N/A   Clear
9:15 PM 51.8 °F - 37.4 °F 58% 30.15 in 10.0 mi Calm Calm - N/A   Clear
9:35 PM 50.0 °F - 41.0 °F 71% 30.16 in 10.0 mi Calm Calm - N/A   Clear
9:55 PM 50.0 °F - 41.0 °F 71% 30.16 in 10.0 mi Calm Calm - N/A   Clear
10:15 PM 50.0 °F - 39.2 °F 66% 30.16 in 10.0 mi Calm Calm - N/A   Clear
10:35 PM 48.2 °F - 41.0 °F 76% 30.16 in 10.0 mi Calm Calm - N/A   Clear
10:55 PM 46.4 °F - 41.0 °F 81% 30.16 in 10.0 mi Calm Calm - N/A   Clear
11:15 PM 44.6 °F - 41.0 °F 87% 30.16 in 10.0 mi Calm Calm - N/A   Clear
11:35 PM 44.6 °F - 44.6 °F 100% 30.15 in 10.0 mi Calm Calm - N/A   Clear
11:55 PM 44.6 °F - 44.6 °F 100% 30.15 in 10.0 mi Calm Calm - N/A   Clear